DELTA 1 DEB, 10864

Orbit data source: Space-Track

DELTA 1 DEB, 10864 is space debris in LEO originally from a launch on Thu, 29 Jul 1976 UTC launched from the Air Force Western Test Range (AFWTR). Debris objects in space refer to the collection of defunct objects orbiting the Earth. Examples of debris include non-operational satellites, rocket bodies, and fragments generated from explosions, collisions, or faulty payload assembly.

Loading next visibility...
Identifier
10864, 1976-077CS
Orbit
LEO
Country
Flag of USUS
Related business
Manufacturer
Unknown
Mission
Spacecraft
Bus & Motor
Unknown
Mass
Unknown
Launch date (UTC)
1976-07-29 (50 years ago)
Launch vehicle
Unknown
Launch site
Air Force Western Test Range (AFWTR)
Object type
Payload
Rocket body
Debris
Shape & HBR
Unknown shape, 0.2 m
Radar Cross Section
Medium (>0.1 m² and <1 m²)

Expand to show TLE details & history
Last TLE update: 7 hours ago

TLE from 7 hours ago
0 DELTA 1 DEB
1 10864U 76077CS  26126.53103716  .00000091  00000-0  16798-2 0  9992
2 10864 101.0986 212.2117 0378647  77.4384 306.5870 11.75792578126448
Epoch: 2026-05-06T12:44Z
TLE epoch observation values (Epoch: 2026-05-06T12:44:41.610Z)
Latitude
20.04912°
Longitude
152.56278°
Altitude
1,616.635 km
Speed
7.14 km/s
True Right ascension
13h 52m 30s
True Declination
19° 57' 02"
Sunlit
Object was in full shadow at epoch
Visualization orbit readout
Latitude
Unknown
Longitude
Unknown
Altitude
Unknown
Speed
Unknown
Apparent Right ascension
Unknown
Apparent Declination
Unknown
Sunlit
N/A
Visualization observer readout
Local Sidereal Time
03:55:35
Azimuth
Unknown
Elevation
Unknown
Doppler factor
Unknown
Orbital elements
Apogee altitude
2,097.937 km
Perigee altitude
1,479.467 km
Semi-major axis
8,166.839 km
Eccentricity
0.03786
Inclination
101.0986°
RAAN
212.2117°
Arg. of periapsis
77.4384°
True anomaly
303.00433°
Mean anomaly
306.587°
Eccentric anomaly
304.80565°
Mean motion
2.94078 °/min
Orbital period
122.42 mins
BSTAR
0.0016798
Loading maneuver chart data...
Computing Atmospheric mass density...
Loading historical data...
Loading historical data...
Loading historical data...
Loading historical data...
Loading historical data...
Loading historical data...
Loading historical data...

Documentation

Showing up to 5 results
|